Weather History for Toronto Pearson, ON

Change the Weather History Date:

Saturday, September 22, 2012

  Actual Average Record
Temperature  
Mean Temperature 56 °F -  
Max Temperature 62 °F 60 °F 84 °F (2004)
Min Temperature 51 °F 41 °F 37 °F (1999)
Degree Days  
Heating Degree Days 8    
Growing Degree Days 6 (Base 50)    
Moisture  
Dew Point 47 °F    
Average Humidity 75    
Maximum Humidity 100    
Minimum Humidity 48    
Precipitation  
Precipitation 0.43 in 0.09 in - ()
Sea Level Pressure  
Sea Level Pressure 29.77 in    
Wind  
Wind Speed 7 mph ()    
Max Wind Speed 23 mph    
Max Gust Speed 30 mph    
Visibility 12.4 miles    
Events Rain    
Averages and records for this station are not official NWS values.
T = Trace of Precipitation, MM = Missing Value Source: Averaged Metar Reports

Daily Weather History Graph

Daily Weather History Graph

Search for Another Location

Airport:

Trip Planner

Search our weather history database for the weather conditions in past years. The results will help you decide how hot, cold, wet, or windy it might be!

Date:

Astronomy

Sep. 22, 2012 Rise Set
Actual Time 7:06 AM EDT 7:15 PM EDT
Civil Twilight 6:37 AM EDT 7:43 PM EDT
Nautical Twilight 6:04 AM EDT 8:17 PM EDT
Astronomical Twilight 5:29 AM EDT 8:51 PM EDT
Moon 2:33 PM EDT (9/22) No Moon Set
Length of Visible Light 13h 05m
Length of Day
12h 08m
Waxing Crescent, 48% of the Moon is Illuminated
Sep 22
Waxing Crescent
Sep 22
First Quarter
Sep 29
Full
Oct 8
Last Quarter
Oct 15
New

Hourly Weather History & Observations

Time (EDT) Temp. Dew Point Humidity Pressure Visibility Wind Dir Wind Speed Gust Speed Precip Events Conditions
12:00 AM 59.0 °F 48.2 °F 67% 29.82 in 15.0 mi SSE 5.8 mph - N/A   Overcast
12:07 AM 59.0 °F - N/A% - 15.0 mi SSE 5.8 mph - N/A Rain Light Rain
1:00 AM 57.2 °F 51.8 °F 82% 29.80 in 8.0 mi South 3.5 mph - N/A Rain Light Rain
2:00 AM 54 °F 51 °F 88% 29.76 in 5 mi WNW 6.9 mph - - Rain Light Rain
2:00 AM 55.4 °F 51.8 °F 88% 29.76 in 5.0 mi WNW 6.9 mph - N/A Rain Light Rain
3:00 AM 53.6 °F 51.8 °F 94% 29.74 in 6.0 mi Calm Calm - N/A Rain Light Rain
4:00 AM 51.8 °F 51.8 °F 100% 29.70 in 6.0 mi North 3.5 mph - N/A Rain Light Rain
4:46 AM 51.8 °F - N/A% - 6.0 mi North 4.6 mph - N/A Rain Light Rain
5:00 AM 51.8 °F 51.8 °F 100% 29.68 in 6.0 mi NE 3.5 mph - N/A Rain Light Rain
6:00 AM 53.6 °F 51.8 °F 94% 29.69 in 8.0 mi West 5.8 mph - N/A Rain Light Rain
6:15 AM 51.8 °F - N/A% - 10.0 mi West 3.5 mph - N/A Rain Light Rain
6:55 AM 53.6 °F - N/A% - 12.0 mi WSW 5.8 mph - N/A   Overcast
7:00 AM 53.6 °F 51.8 °F 94% 29.70 in 10.0 mi WSW 4.6 mph - N/A   Overcast
7:09 AM 53.6 °F - N/A% - 12.0 mi SW 4.6 mph - N/A   Overcast
8:00 AM 53 °F 51 °F 92% 29.70 in 15 mi WSW 5.8 mph - -   Partly Cloudy
8:00 AM 53.6 °F 51.8 °F 94% 29.70 in 15.0 mi WSW 5.8 mph - N/A   Mostly Cloudy
9:00 AM 53.6 °F 51.8 °F 94% 29.72 in 12.0 mi SSW 5.8 mph - N/A Rain Light Rain
9:35 AM 55.4 °F - N/A% - 15.0 mi SSW 5.8 mph - N/A   Mostly Cloudy
10:00 AM 55.4 °F 51.8 °F 88% 29.73 in 15.0 mi WSW 8.1 mph - N/A   Mostly Cloudy
11:00 AM 57.2 °F 51.8 °F 82% 29.73 in 15.0 mi SW 12.7 mph - N/A   Mostly Cloudy
12:00 PM 60.8 °F 51.8 °F 72% 29.73 in 15.0 mi WSW 15.0 mph 20.7 mph N/A   Mostly Cloudy
1:00 PM 60.8 °F 48.2 °F 63% 29.73 in 15.0 mi West 18.4 mph - N/A   Mostly Cloudy
2:00 PM 59 °F 46 °F 51% 29.74 in 15 mi WSW 18.4 mph - -   Partly Cloudy
2:00 PM 59.0 °F 46.4 °F 63% 29.74 in 15.0 mi West 20.7 mph - N/A   Scattered Clouds
3:00 PM 60.8 °F 41.0 °F 48% 29.75 in 15.0 mi West 23.0 mph 29.9 mph N/A   Partly Cloudy
4:00 PM 59.0 °F 42.8 °F 55% 29.77 in 15.0 mi West 20.7 mph - N/A   Mostly Cloudy
5:00 PM 59.0 °F 42.8 °F 55% 29.79 in 15.0 mi West 12.7 mph 23.0 mph N/A   Mostly Cloudy
6:00 PM 57.2 °F 42.8 °F 59% 29.82 in 15.0 mi WNW 12.7 mph - N/A   Mostly Cloudy
7:00 PM 57.2 °F 39.2 °F 51% 29.84 in 15.0 mi WNW 11.5 mph 18.4 mph N/A   Mostly Cloudy
8:00 PM 54 °F 40 °F 49% 29.88 in 15 mi WNW 10.4 mph - -   Scattered Clouds
8:00 PM 53.6 °F 41.0 °F 62% 29.88 in 15.0 mi WNW 11.5 mph - N/A   Mostly Cloudy
9:00 PM 53.6 °F 41.0 °F 62% 29.90 in 15.0 mi West 10.4 mph - N/A   Mostly Cloudy
10:00 PM 51.8 °F 42.8 °F 71% 29.91 in 15.0 mi West 9.2 mph - N/A   Overcast
11:00 PM 51.8 °F 42.8 °F 71% 29.92 in 15.0 mi West 12.7 mph 18.4 mph N/A   Mostly Cloudy